Preview of NWS' New Version of Forecast
This preview is not operational and should not be used for support decisions.
Latest weather observations around

Auburn Municipal Airport (KAUN)

Using English Units (Switch to International System of Units)
Date/ Time (PDT) Wind (mph) Vis. (mi) Weather Sky Cond. Temp (°F) Rel. Humidity Wind Chill (°F) Heat Index (°F) Pressure Precip. (in)
Air Dwpt 6 hour Altimeter (inHg) Sea level (inHg) 1 hr 3 hr 6 hr
Max Min
Sep 23 12:55 W 9 10 Clear CLR 81 52     37%   80 30        
Sep 23 12:35 WNW 9 10 Clear CLR 79 52     39%   78 30        
Sep 23 12:15 NW 7 10 Clear CLR 79 52     39%   78 30        
Sep 23 11:55 W 9 10 Clear CLR 79 52     39%   78 30        
Sep 23 11:35 W 7 10 Clear CLR 79 50     37%   78 30        
Sep 23 11:15 W 6 10 Clear CLR 79 52     39%   78 30        
Sep 23 10:55 5 10 Clear CLR 77 48     36%   76 30        
Sep 23 10:35 Calm 10 Clear CLR 77 48     36%   76 30        
Sep 23 10:15 Calm 10 Clear CLR 75 46     36%   74 30        
Sep 23 09:55 Calm 10 Clear CLR 72 46     41%   70 29.99        
Sep 23 09:35 Calm 10 Clear CLR 72 48     43%   71 29.99        
Sep 23 09:15 Calm 10 Clear CLR 70 46     43%     29.99        
Sep 23 08:55 Calm 10 Clear CLR 68 46     46%     29.99        
Sep 23 08:35 Calm 10 Clear CLR 66 46     49%     29.97        
Sep 23 08:15 Calm 10 Clear CLR 66 48     52%     29.97        
Sep 23 07:55 Calm 10 Clear CLR 63 50     63%     29.97        
Sep 23 07:35 Calm 10 Clear CLR 59 50     72%     29.96        
Sep 23 07:15 Calm 10 Clear CLR 61 46     59%     29.95        
Sep 23 06:55 Calm 10 Clear CLR 57 46     67%     29.95        
Sep 23 06:35 Calm 10 Clear CLR 57 48     72%     29.94        
Sep 23 06:15 Calm 10 Clear CLR 57 48     72%     29.93        
Sep 23 05:55 Calm 10 Clear CLR 57 48     72%     29.93        
Sep 23 05:35 Calm 10 Clear CLR 57 48     72%     29.93        
Sep 23 05:15 Calm 10 Clear CLR 55 48     77%     29.92        
Sep 23 04:55 Calm 10 Clear CLR 57 48     72%     29.92        
Sep 23 04:35 Calm 10 Clear CLR 59 48     67%     29.92        
Sep 23 04:15 Calm 10 Clear CLR 63 48     59%     29.92        
Sep 23 03:55 E 3 10 Clear CLR 63 48     59%     29.91        
Sep 23 03:35 E 8 10 Clear CLR 64 48     56%     29.91        
Sep 23 03:15 ESE 6 10 Clear CLR 64 48     56%     29.91        
Sep 23 02:55 Calm 10 Clear CLR 63 50     63%     29.9        
Sep 23 02:35 Calm 10 Clear CLR 63 48     59%     29.91        
Sep 23 02:15 Calm 10 Clear CLR 66 48     52%     29.91        
Sep 23 01:55 ESE 9 10 Mostly Cloudy BKN085 66 48     52%     29.92        
Sep 23 01:35 ESE 8 10 Cloudy OVC090 66 50     56%     29.92        
Sep 23 01:15 E 8 10 Mostly Cloudy BKN095 64 50     60%     29.92        
Sep 23 00:55 Calm 10 Mostly Cloudy BKN100 66 48     52%     29.92        
Sep 23 00:35 ESE 7 10 Cloudy OVC100 68 48     49%     29.92        
Sep 23 00:15 ESE 8 10 Mostly Cloudy BKN100 68 48     49%     29.92        
Sep 22 23:55 ESE 9 10 Partly Cloudy SCT100 68 48     49%     29.92        
Sep 22 23:35 ESE 8 10 Mostly Clear FEW110 68 48     49%     29.92        
Sep 22 23:15 ESE 9 10 Mostly Clear FEW120 68 48     49%     29.93        
Sep 22 22:55 ESE 6 10 Clear CLR 66 48     52%     29.92        
Sep 22 22:35 E 8 10 Mostly Clear FEW120 68 48     49%     29.92        
Sep 22 22:15 Calm 10 Clear CLR 68 48     49%     29.92        
Sep 22 21:55 ESE 7 10 Clear CLR 68 46     46%     29.92        
Sep 22 21:35 Calm 10 Mostly Clear FEW120 70 46     43%     29.93        
Sep 22 21:15 Calm 10 Mostly Cloudy BKN120 70 46     43%     29.93        
Sep 22 20:55 ESE 5 10 Mostly Clear FEW120 70 45     40%     29.92        
Sep 22 20:35 Calm 10 Clear CLR 72 46     41%   70 29.92        
Sep 22 20:15 Calm 10 Clear CLR 72 46     41%   70 29.91        
Sep 22 19:55 Calm 10 Clear CLR 72 46     41%   70 29.9        
Sep 22 19:35 Calm 10 Clear CLR 73 46     38%   72 29.9        
Sep 22 19:15 Calm 10 Clear CLR 73 46     38%   72 29.9        
Sep 22 18:55 Calm 10 Clear CLR 75 46     36%   74 29.91        
Sep 22 18:35 Calm 10 Clear   77 46     34%   76 29.91        
Sep 22 18:15 Calm 10 Clear   77 46     34%   76 29.91        
Sep 22 17:55 Calm 10 Clear   79 46     32%   78 29.91        
Sep 22 17:35 Calm 10 Clear CLR 79 46     32%   78 29.91        
Sep 22 17:15 Calm 10 Clear CLR 81 48     32%   80 29.91        
Sep 22 16:55 Calm 10 Clear CLR 81 48     32%   80 29.92        
Sep 22 16:35 W 6 10 Clear CLR 79 48     34%   78 29.91        
Sep 22 16:15 Calm 10 Clear CLR 81 48     32%   80 29.92        
Sep 22 15:55 Calm 10 Clear CLR 81 48     32%   80 29.92        
Sep 22 15:35 Calm 10 Clear CLR 81 46     30%   80 29.93        
Sep 22 15:15 Calm 10 Clear CLR 81 48     32%   80 29.93        
Sep 22 14:55 Calm 10 Clear CLR 81 50     34%   80 29.94        
Sep 22 14:35 Calm 10 Clear CLR 79 48     34%   78 29.94        
Sep 22 14:15 W 5 10 Clear CLR 79 50     37%   78 29.95        
Sep 22 13:55 W 6 10 Clear CLR 77 50     39%   76 29.95        
Sep 22 13:35 Calm 10 Clear CLR 77 50     39%   76 29.95        
Sep 22 13:15 Calm 10 Clear CLR 77 48     36%   76 29.95        
Sep 22 12:55 WSW 6 10 Clear CLR 79 48     34%   78 29.95        
Sep 22 12:35 WSW 8 10 Clear CLR 79 48     34%   78 29.96        
Sep 22 12:15 SW 6 10 Clear CLR 79 48     34%   78 29.96        
Sep 22 11:55 Calm 10 Clear CLR 81 48     32%   80 29.96        
Sep 22 11:35 S 5 10 Clear CLR 81 46     30%   80 29.97        
Sep 22 11:15 Calm 10 Clear CLR 79 48     34%   78 29.97        
Sep 22 10:50 SE 6 10 Clear CLR 75 48     38%   74 29.97        
Sep 22 10:35 Calm 10 Clear CLR 77 50     39%   76 29.98        
Sep 22 10:15 Calm 10 Clear CLR 75 50     41%   74 29.98        
Sep 22 09:55 SE 6 10 Clear CLR 77 48     36%   76 29.98        
Sep 22 09:35 E 5 10 Clear CLR 73 48     41%   72 29.98        
Sep 22 09:15 Calm 10 Clear CLR 73 48     41%   72 29.98        
Sep 22 08:55 E 9 10 Clear CLR 72 48     43%   71 29.98        
Sep 22 08:35 Calm 10 Clear CLR 68 48     49%     29.97        
Sep 22 08:15 E 8 10 Clear CLR 68 48     49%     29.97        
Sep 22 07:55 E 8 10 Clear CLR 66 48     52%     29.96        
Sep 22 07:35 E 8 10 Clear CLR 64 48     56%     29.96        
Sep 22 07:15 E 8 10 Clear CLR 64 48     56%     29.96        
Sep 22 06:55 E 8 10 Clear CLR 63 48     59%     29.96        
Sep 22 06:35 E 6 10 Clear CLR 63 48     59%     29.96        
Sep 22 06:15 ESE 5 10 Clear CLR 63 48     59%     29.96        
Sep 22 05:55 Calm 10 Clear CLR 63 48     59%     29.95        
Sep 22 05:35 Calm 10 Clear CLR 63 48     59%     29.95        
Sep 22 05:15 Calm 10 Clear CLR 61 48     63%     29.95        
Sep 22 04:55 Calm 10 Clear CLR 64 48     56%     29.95        
Sep 22 04:35 Calm 10 Clear CLR 63 48     59%     29.94        
Sep 22 04:15 Calm 10 Clear CLR 63 48     59%     29.94        
Sep 22 03:55 Calm 10 Clear CLR 64 48     56%     29.94        
Sep 22 03:35 Calm 10 Clear CLR 64 48     56%     29.94        
Sep 22 03:15 Calm 10 Clear CLR 64 48     56%     29.94        
Sep 22 02:55 E 7 10 Clear CLR 66 50     56%     29.94        
Sep 22 02:35 E 7 10 Clear CLR 64 50     60%     29.95        
Sep 22 02:15 E 8 10 Clear CLR 66 50     56%     29.95        
Sep 22 01:55 E 10 10 Clear CLR 66 50     56%     29.95        
Sep 22 01:35 E 6 10 Clear CLR 64 50     60%     29.95        
Sep 22 01:15 Calm 10 Clear CLR 66 50     56%     29.95        
Sep 22 00:55 E 8 10 Clear CLR 66 50     56%     29.95        
Sep 22 00:35 E 7 10 Clear CLR 66 50     56%     29.95        
Sep 22 00:15 E 9 10 Clear CLR 66 50     56%     29.95        
Sep 21 23:55 E 9 10 Clear CLR 66 50     56%     29.95        
Sep 21 23:35 E 10 10 Clear CLR 66 50     56%     29.96        
Sep 21 23:15 E 9 10 Clear CLR 66 50     56%     29.96        
Sep 21 22:55 E 10 10 Clear CLR 66 50     56%     29.96        
Sep 21 22:35 Calm 10 Clear CLR 64 50     60%     29.96        
Sep 21 22:15 Calm 10 Clear CLR 63 50     63%     29.96        
Sep 21 21:55 Calm 10 Clear CLR 66 48     52%     29.96        
Sep 21 21:35 Calm 10 Clear CLR 64 48     56%     29.95        
Sep 21 21:15 Calm 10 Clear CLR 64 48     56%     29.95        
Sep 21 20:55 Calm 10 Clear CLR 64 50     60%     29.95        
Sep 21 20:35 Calm 10 Clear CLR 64 48     56%     29.95        
Sep 21 20:15 Calm 10 Clear CLR 64 50     60%     29.94        
Sep 21 19:55 Calm 10 Clear CLR 70 46     43%     29.94        
Sep 21 19:35 Calm 10 Clear CLR 64 50     60%     29.94        
Sep 21 19:15 Calm 10 Clear CLR 70 48     46%     29.94        
Sep 21 18:55 Calm 10 Clear CLR 73 46     38%   72 29.93        
Sep 21 18:35 Calm 10 Clear CLR 77 45     32%   76 29.93        
Sep 21 18:15 Calm 10 Clear CLR 79 45     30%   78 29.93        
Sep 21 17:55 Calm 10 Clear CLR 79 45     30%   78 29.93        
Sep 21 17:35 WNW 5 10 Clear CLR 81 45     28%   80 29.93        
Sep 21 17:15 W 6 10 Clear CLR 81 45     28%   80 29.93        
Sep 21 16:55 W 7 10 Clear CLR 81 45     28%   80 29.94        
Sep 21 16:35 W 7 10 Clear CLR 81 45     28%   80 29.94        
Sep 21 16:15 WSW 7 10 Clear CLR 81 43     26%   80 29.94        
Sep 21 15:55 WSW 5 10 Clear CLR 81 43     26%   80 29.94        
Sep 21 15:35 SW 7 10 Clear CLR 81 45     28%   80 29.94        
Sep 21 15:20 W 8 10 Clear CLR 81 45     28%   80 29.95        
Sep 21 14:55 W 6 10 Clear CLR 82 45     27%   81 29.95        
Sep 21 14:35 W 5 10 Clear CLR 81 45     28%   80 29.96        
Sep 21 14:15 Calm 10 Clear CLR 81 45     28%   80 29.96        
Sep 21 13:55 W 6 10 Clear CLR 79 43     28%   78 29.97        
Sep 21 13:35 Calm 10 Clear CLR 79 45     30%   78 29.97        
Sep 21 13:15 3 10 Clear CLR 79 45     30%   78 29.98        
Sep 21 12:55 W 6 10 Clear CLR 77 45     32%   76 29.98        
Sep 21 12:35 W 6 10 Clear CLR 77 45     32%   76 29.99        
Sep 21 12:15 Calm 10 Clear CLR 77 46     34%   76 29.99        
Sep 21 11:55 WSW 5 10 Clear CLR 75 46     36%   74 30        
Sep 21 11:35 5 10 Clear CLR 75 46     36%   74 30        
Sep 21 11:15 W 3 10 Clear CLR 75 46     36%   74 30        
Sep 21 10:55 SSW 5 10 Clear CLR 75 43     31%   74 30.01        
Sep 21 10:35 Calm 10 Clear CLR 73 43     33%   72 30.01        
Sep 21 10:15 Calm 10 Clear CLR 73 43     33%   72 30.01        
Sep 21 09:55 Calm 10 Clear CLR 72 43     35%   70 30.01        
Sep 21 09:35 E 6 10 Clear CLR 72 43     35%   70 30.01        
Sep 21 09:15 Calm 10 Clear CLR 70 45     40%     30        
Sep 21 08:55 Calm 10 Clear CLR 68 43     40%     30        
Sep 21 08:35 Calm 10 Clear CLR 64 45     49%     30        
Sep 21 08:15 E 5 10 Clear CLR 64 43     45%     30        
Sep 21 07:55 E 6 10 Clear CLR 64 41     42%     29.99        
Sep 21 07:35 Calm 10 Clear CLR 63 41     45%     29.99        
Sep 21 07:15 E 7 10 Clear CLR 61 41     48%     29.99        
Sep 21 06:55 E 7 10 Clear CLR 61 41     48%     29.98        
Sep 21 06:35 E 7 10 Clear CLR 59 41     51%     29.98        
Sep 21 06:15 E 8 10 Clear CLR 59 41     51%     29.97        
Sep 21 05:55 E 8 10 Clear CLR 59 43     55%     29.97        
Sep 21 05:35 E 6 10 Clear CLR 59 43     55%     29.97        
Sep 21 05:15 E 7 10 Clear CLR 59 43     55%     29.97        
Sep 21 04:55 E 8 10 Clear CLR 59 43     55%     29.97        
Sep 21 04:35 E 8 10 Clear CLR 59 43     55%     29.96        
Sep 21 04:15 Calm 10 Clear CLR 59 43     55%     29.97        
Sep 21 03:55 E 7 10 Clear CLR 59 43     55%     29.97        
Sep 21 03:35 Calm 10 Clear CLR 57 45     63%     29.97        
Sep 21 03:15 Calm 10 Clear CLR 59 45     59%     29.96        
Sep 21 02:55 Calm 10 Clear CLR 57 45     63%     29.96        
Sep 21 02:35 Calm 10 Clear CLR 57 45     63%     29.96        
Sep 21 02:15 E 6 10 Clear CLR 63 41     45%     29.95        
Sep 21 01:55 E 8 10 Clear CLR 63 43     48%     29.95        
Sep 21 01:35 E 6 10 Clear CLR 63 43     48%     29.95        
Sep 21 01:15 Calm 10 Clear CLR 63 45     52%     29.94        
Sep 21 00:55 Calm 10 Clear CLR 63 45     52%     29.94        
Sep 21 00:35 ENE 3 10 Clear CLR 63 46     55%     29.94        
Sep 21 00:15 Calm 10 Clear CLR 63 46     55%     29.94        
Sep 20 23:55 Calm 10 Clear CLR 64 46     52%     29.94        
Sep 20 23:35 Calm 10 Clear CLR 64 46     52%     29.94        
Sep 20 23:15 Calm 10 Clear CLR 64 46     52%     29.94        
Sep 20 22:55 Calm 10 Clear CLR 63 46     55%     29.94        
Sep 20 22:35 Calm 10 Clear CLR 64 46     52%     29.95        
Sep 20 22:15 Calm 10 Clear CLR 64 46     52%     29.95        
Sep 20 21:55 Calm 10 Clear CLR 66 45     46%     29.95        
Sep 20 21:35 Calm 10 Clear CLR 59 46     63%     29.95        
Sep 20 21:15 Calm 10 Clear CLR 61 48     63%     29.96        
Sep 20 20:55 Calm 10 Clear CLR 61 48     63%     29.95        
Sep 20 20:35 Calm 10 Clear CLR 63 48     59%     29.95        
Sep 20 20:15 Calm 10 Clear CLR 64 46     52%     29.95        
Sep 20 19:55 Calm 10 Clear CLR 64 48     56%     29.94        
Sep 20 19:35 Calm 10 Clear CLR 68 45     43%     29.94        
Sep 20 19:15 Calm 10 Clear CLR 70 45     40%     29.94        
Sep 20 18:55 Calm 10 Clear CLR 72 43     35%   70 29.94        
Sep 20 18:35 Calm 10 Clear CLR 73 43     33%   72 29.93        
Sep 20 18:15 Calm 10 Clear CLR 75 43     31%   74 29.94        
Sep 20 17:55 5 10 Clear CLR 75 45     34%   74 29.94        
Sep 20 17:35 5 10 Clear   75 45     34%   74 29.94        
Sep 20 17:15 6 10 Clear   77 45     32%   76 29.94        
Sep 20 16:55 W 6 10 Clear   77 45     32%   76 29.94        
Sep 20 16:35 W 9 10 Clear CLR 77 46     34%   76 29.95        
Sep 20 16:15 W 7 10 Clear CLR 77 45     32%   76 29.95        
Sep 20 15:55 WNW 8 10 Clear CLR 77 45     32%   76 29.95        
Sep 20 15:35 W 7 10 Clear   77 45     32%   76 29.95        
Sep 20 15:15 WNW 9 10 Clear   77 45     32%   76 29.96        
Sep 20 14:55 W 5 10 Clear   77 45     32%   76 29.96        
Sep 20 14:35 W 8 10 Clear CLR 77 45     32%   76 29.96        
Sep 20 14:15 Calm 10 Clear CLR 77 45     32%   76 29.97        
Sep 20 13:55 Calm 10 Clear CLR 75 45     34%   74 29.97        
Sep 20 13:35 5 10 Clear CLR 75 45     34%   74 29.98        
Sep 20 13:15 W 7 10 Clear CLR 75 45     34%   74 29.98        
Sep 20 12:55 W 6 10 Clear CLR 75 45     34%   74 29.99        
Sep 20 12:35 5 10 Clear CLR 75 45     34%   74 29.99        
Sep 20 12:15 Calm 10 Clear CLR 73 45     36%   72 29.99        
Sep 20 11:55 Calm 10 Clear CLR 73 45     36%   72 29.99        
Sep 20 11:35 5 10 Clear CLR 73 43     33%   72 29.99        
Sep 20 11:15 7 9 Clear CLR 73 45     36%   72 29.99        
Sep 20 10:55 WSW 3 3 Haze CLR 73 45     36%   72 29.99        
Sep 20 10:35 SW 3 10 Clear CLR 73 43     33%   72 29.99        
Sep 20 10:15 Calm 10 Clear CLR 72 39     31%   70 29.99        
Sep 20 09:55 Calm 10 Clear CLR 70 41     35%     29.99        
May 15 11:55 SSW 7 10 Clear CLR 64 48     56%              
May 15 11:15 SSW 3 10 Clear CLR 63 46     55%              
May 15 09:15 S 7 10 Clear CLR 55 46     72%     30.01        
May 15 04:35 SE 11 10 Clear CLR 52 43     71%              
May 15 03:35 SSE 8 10 Clear CLR 54 43     67%              
May 15 02:15 SE 9 10 Clear CLR 57 37     47%              
May 14 22:55 SE 7 10 Clear CLR 57 48     72%              
May 14 21:55 SSE 7 10 Clear CLR 61 50     68%              
May 14 21:35 SSE 9 10 Clear CLR 61 50     68%     29.94        
May 14 20:15 SSE 8 10 Clear CLR 63 52     68%     29.92        
May 14 17:15 SSW 5 10 Clear CLR 72 52     50%   71          
May 14 13:35 W 7 10 Clear CLR 70 52     53%     29.95        
May 14 09:15 SSE 6 10 Clear CLR 61 45     55%     29.96        
May 14 05:55 SE 3 10 Clear CLR 52 45     76%              
May 14 00:15 SSE 7 10 Mostly Clear FEW110 57 46     67%     29.95        
May 13 17:20 S 7 10 Clear CLR 72 48     43%   71 29.93        
May 13 16:55 SSW 7 10 Clear CLR 72 48     43%   71 29.94        
May 13 13:55 SW 8 10 Clear CLR 70 48     46%              
May 13 08:55 SSW 7 10 Clear CLR 57 48     72%     29.97        
May 12 14:15 WSW 11 10 Clear CLR 75 43     31%   74 29.84        
May 12 08:35 NNE 7 10 Clear CLR 64 36     34%     29.85        
May 12 00:35 NNE 5 10 Clear CLR 61 32     34%     29.85        
May 11 22:35 NNE 6 10 Clear CLR 64 32     30%     29.84        
May 11 19:55 NNE 8 10 Clear CLR 72 27     19%   69 29.78        
May 11 17:15   10 Clear CLR 75        %     29.75        
May 11 08:15 NNW 3 10 Clear CLR 57 46     67%     29.84        
May 11 07:15 Calm 10 Clear CLR 57 45     63%     29.82        
Jun 12 04:35 E 5 10 Cloudy BKN042 OVC049 48 41     76% 46   29.99        
Jun 11 19:55 ESE 11 10 Clear   52 41     67%     29.95        
Jun 11 17:35 W 8 10 Mostly Clear FEW047 54 39     58%     29.92        
Jun 11 13:15 SSW 8 10 Partly Cloudy FEW035 SCT048 63 43     48%     29.91        
Jun 11 08:15 SE 8 10 Mostly Clear FEW015 52 43     71%     29.88        
Jun 11 07:35 SE 10 10 Clear CLR 50 43     76% 46   29.88        
Notice The following observation data may not be complete
Jun 11 02:35   10 Mostly Cloudy BKN048 BKN055          %              
Notice The following observation data may not be complete
Jun 11 00:55 SSE 9 10 Mostly Cloudy BKN048   52      %     29.89        
Notice The following observation data may not be complete
Jun 11 00:15 SE 10 10 Mostly Cloudy BKN050          %     29.89        
Notice The following observation data may not be complete
Jun 10 22:15 S 8 10 Partly Cloudy SCT055          %     29.89        
Jun 10 21:15 S 11 10 Mostly Cloudy BKN060 BKN070 68        %              
Notice The following observation data may not be complete
Jun 10 20:55 S 10 10 Mostly Clear FEW070   54      %              
Jun 10 19:15 SSW 8 10 Mostly Clear FEW060 72 48     43%   71 29.86        
Jun 10 15:55 W 9 10 Clear CLR 73 45     36%   72 29.9        
Jun 10 11:35 WSW 9 10 Clear CLR 70 52     53%     29.95        
Jun 10 09:35 SW 6 10 Clear CLR 64 52     64%     29.94        
Notice The following observation data may not be complete
Jun 09 19:15   10 Partly Cloudy SCT038          %              
Jun 09 13:15 SSW 6 10 Cloudy BKN018 OVC024 68 61     78%     29.94        
Jun 08 21:35 Calm 10 Cloudy OVC034 66 57     73%     30        
Jun 08 20:15 SSE 3 10 Mostly Cloudy BKN032 68 57     68%     30        
Jun 08 17:35 SE 8 10 Cloudy OVC026 68 57     68%     30.02        
Jun 08 14:55 SE 10 10 Cloudy SCT012 SCT019 OVC026 64 59     83%     30.06        
Jun 08 13:15 SE 9 9 Mostly Cloudy FEW009 SCT026 BKN039 61 59     94%     30.07        
Notice The following observation data may not be complete
Jun 08 08:15 Calm 4 Cloudy SCT027 BKN044 OVC060   52      %     30.01   0    
Jun 08 06:55 WSW 5 10 Mostly Cloudy FEW008 SCT050 BKN080 57 45     63%     29.99        
Notice The following observation data may not be complete
Jun 08 01:35   10 Clear CLR          %              
Notice The following observation data may not be complete
Jun 07 21:35   10 Clear CLR          %              
Notice The following observation data may not be complete
Jun 07 19:15 SSW 9 10 Clear CLR   52      %     29.87        
Jun 07 15:15 S 6 10 Clear CLR 82 43     25%   80 29.89        
Jun 07 10:15 SSE 7 10 Clear   81 46     30%   80 29.89        
Jun 07 09:55 SSE 8 10 Clear CLR 79 46     32%   78 29.89        
Jun 07 08:15 SE 7 10 Clear CLR 73 45     36%   72 29.88        
Notice The following observation data may not be complete
Jun 07 05:15 ESE 10 10 Clear CLR   43      %              
Jun 06 11:15 Calm 10 Clear CLR 82 48     30%   81          
Notice The following observation data may not be complete
Jun 06 08:55 E 5 10 Clear CLR   45      %     29.92        
Notice The following observation data may not be complete
Jun 06 07:15 E 9 10 Clear CLR   43      %     29.92        
Notice The following observation data may not be complete
Jun 06 01:55 E 9 10 Clear CLR   43      %     29.91        
Notice The following observation data may not be complete
Jun 06 00:35   10 Clear CLR          %              
Jun 05 21:55 Calm 10 Clear CLR 68 41     37%     29.9        
Jun 05 19:55 WSW 3 10 Clear   82 36     19%   80          
Notice The following observation data may not be complete
Jun 05 13:15   10 Clear CLR          %